Terminal Aerodrome Forecast
Issued by NWS Salt Lake City, UT

Home | Current Version | Previous Version | Text Only | Print | Product List | Glossary On
Versions: 1 2 3 4 5 6 7 8 9 10 11 12 13 14 15 16 17 18 19 20 21 22 23 24 25 26 27 28 29 30 31 32 33 34 35 36 37 38 39 40 41 42 43 44 45 46 47 48 49 50
000
FTUS45 KSLC 211728
TAFSLC
TAF
KSLC 211728Z 2118/2224 17012G22KT 6SM -RA SCT020 OVC035
      WS020/30025KT
     FM220100 30010KT P6SM VCSH SCT015 OVC035
     FM221600 32012G18KT P6SM SCT030 BKN080=

USA.gov is the U.S. government's official web portal to all federal, state and local government web resources and services.